Wind_Speed
17 17 17 17 17 17 17 17 17 17 17 17 18 18 18 18 18 18 18 18 18 18 18 18 18 18 19 19 19 19 19 19 19 20 19 19 20 20
18 17 17 17 17 17 18 18 18 18 18 18 18 18 18 18 18 18 18 18 18 18 18 18 19 19 19 19 19 19 19 19 19 19 19 20 20 20
18 18 18 18 18 18 18 19 19 19 19 18 18 19 19 18 18 18 18 18 18 18 19 19 19 19 20 20 19 19 19 19 19 19 19 20 20 20
19 20 20 19 19 19 19 20 20 20 20 19 19 19 19 19 19 19 19 19 18 19 19 19 20 20 20 20 19 19 19 19 19 20 20 20 21 21
21 21 21 20 21 21 21 21 21 21 21 20 20 20 20 19 20 19 19 19 19 19 20 21 21 21 20 20 20 20 20 20 21 21 20 20 20 20
22 22 22 22 22 22 22 22 22 22 22 22 22 22 21 21 21 21 20 20 20 20 21 21 21 21 21 21 21 20 21 21 21 21 21 21 21 21
23 23 23 23 23 23 23 23 23 24 23 23 23 23 22 22 22 22 22 22 22 22 22 22 22 21 21 21 20 21 21 21 21 21 22 22 22 22
24 24 24 24 24 25 24 24 24 24 24 24 24 24 23 23 23 24 23 23 23 23 23 23 23 22 22 21 21 21 22 22 22 23 23 23 23 23
26 26 26 26 26 26 26 26 26 26 26 25 24 24 24 24 25 25 25 25 24 25 24 24 24 23 22 22 23 23 23 23 23 23 23 23 23 23
27 27 27 27 27 27 27 27 27 27 26 25 25 25 25 25 25 25 24 24 25 25 25 25 25 25 24 24 24 24 24 24 24 24 23 23 23 23
29 28 28 28 28 28 29 29 29 27 26 26 26 27 27 26 26 26 25 25 25 25 26 26 26 26 25 26 26 25 25 25 25 24 24 23 24 24
30 30 30 29 29 29 29 29 29 28 28 27 27 28 28 27 27 27 27 26 26 26 26 27 27 27 26 26 26 26 25 25 24 24 24 24 25 25
30 30 30 31 30 30 30 30 30 30 30 30 30 30 29 28 28 28 28 29 28 28 27 27 27 27 27 26 26 26 26 26 25 25 25 25 24 25
32 32 32 31 31 32 31 31 31 30 30 30 30 30 30 30 30 30 29 29 29 29 29 28 28 28 28 27 27 27 26 26 25 25 25 25 25 25
34 33 33 33 32 33 32 31 31 30 30 29 30 30 30 31 31 31 31 31 30 30 29 29 29 29 29 28 28 28 27 27 26 26 26 25 26 26
35 34 34 34 34 33 33 33 32 31 31 30 30 30 30 30 30 30 30 30 30 30 30 30 30 30 30 29 29 28 28 27 27 27 26 26 26 26
34 34 34 33 33 33 33 32 32 31 31 31 30 30 30 30 30 30 30 30 30 30 30 30 31 31 31 30 29 28 28 28 28 27 27 27 27 27
35 33 33 33 32 32 32 32 32 31 31 31 31 31 30 30 30 30 30 30 30 30 29 29 29 29 30 30 30 29 29 29 28 28 27 27 27 28
35 34 33 32 32 32 32 32 32 31 31 32 31 31 30 30 30 30 30 30 30 29 29 29 29 29 29 29 29 30 29 29 29 29 29 28 28 28
35 35 34 33 32 32 32 32 32 32 32 32 32 31 31 31 31 30 31 30 30 30 30 30 30 30 29 29 29 29 29 29 29 29 29 29 29 29
36 35 35 34 33 33 33 32 32 32 32 32 32 32 32 32 32 31 31 31 31 31 31 31 31 30 30 30 29 29 29 29 29 29 30 30 29 29
35 35 35 34 34 34 34 33 33 33 33 33 33 33 33 33 33 32 32 32 32 31 31 31 31 30 30 30 29 29 29 30 30 31 31 31 30 29
35 35 35 34 34 34 34 34 33 33 33 33 34 34 34 34 34 34 34 33 33 32 32 31 31 30 30 29 29 29 29 29 30 31 31 32 31 31
Wind_Direction
294 294 295 297 298 299 298 297 297 296 297 299 300 300 297 294 293 293 292 291 289 287 286 287 288 289 289 287 286 283 282 279 277 276 277 275 275 276
292 293 293 294 296 297 298 298 298 297 297 297 299 300 299 295 293 292 292 292 290 290 288 289 289 289 288 288 287 285 283 281 280 278 275 276 276 273
291 292 293 293 294 296 297 297 298 297 297 297 297 299 299 297 293 292 293 293 291 290 291 291 290 289 288 288 287 285 284 283 282 278 275 275 275 275
290 290 292 293 293 296 297 297 297 297 296 297 296 297 298 296 294 293 294 294 293 292 292 292 291 290 289 288 287 285 284 283 281 278 276 275 274 275
288 289 291 292 292 294 296 296 296 296 296 296 296 296 296 294 293 293 293 293 292 290 290 291 291 291 289 287 286 284 284 283 280 279 276 276 276 275
287 287 289 290 291 292 294 294 294 294 294 294 294 294 293 292 292 291 291 291 290 290 290 290 289 289 290 287 285 285 283 282 281 279 276 276 277 275
286 286 287 288 288 290 290 292 292 292 292 292 292 293 291 290 290 290 290 291 290 289 289 289 289 288 287 287 286 286 284 282 282 281 277 276 276 275
284 285 286 286 286 287 287 289 290 291 290 290 291 292 291 289 288 289 289 290 289 288 287 286 285 285 286 285 285 286 284 282 281 281 279 277 276 274
282 283 284 284 285 285 285 287 289 290 289 289 289 289 289 288 289 288 286 288 288 288 286 284 283 283 282 282 283 284 284 283 282 281 278 276 275 272
281 282 282 282 283 284 285 285 286 287 287 287 287 288 288 287 289 289 288 288 288 288 285 284 283 282 281 282 282 283 282 282 281 280 277 274 273 272
279 281 281 280 282 283 285 285 285 284 283 284 285 286 286 287 288 289 289 289 288 288 286 284 284 284 282 281 281 282 283 282 281 280 277 273 271 272
278 280 281 281 282 283 285 286 284 283 283 283 282 283 284 285 286 287 287 288 288 287 285 284 283 282 282 280 279 280 282 282 282 281 278 274 273 272
277 280 281 282 282 283 285 285 285 284 282 282 282 282 282 283 285 285 285 286 285 284 284 284 283 283 283 282 281 281 281 282 282 281 278 276 274 273
277 278 280 280 281 282 284 284 284 283 283 283 283 283 282 282 282 283 284 285 284 283 283 283 282 282 283 284 283 282 281 281 281 280 278 276 276 276
278 277 277 279 280 281 282 282 282 282 282 284 284 284 284 284 283 282 283 283 283 284 284 283 282 281 281 283 284 283 282 281 280 280 278 276 277 277
278 276 276 277 278 278 279 280 280 280 281 283 285 285 285 285 284 283 283 284 284 284 283 282 282 281 281 282 283 282 281 280 280 279 279 277 277 276
277 277 277 276 276 277 277 278 278 279 280 282 283 283 284 284 284 284 284 284 284 285 284 284 282 282 281 282 283 282 280 280 279 279 278 277 277 277
276 276 276 276 275 275 275 276 278 280 280 280 281 282 282 283 283 283 283 284 284 284 283 284 283 283 281 281 282 281 281 280 279 278 277 276 278 278
275 275 274 274 274 274 275 275 277 279 279 279 279 279 280 281 282 282 283 283 283 282 282 283 282 283 283 282 281 281 280 279 278 277 276 275 277 278
274 273 272 272 274 275 275 275 276 277 278 278 277 278 279 280 281 281 281 282 282 282 282 282 282 283 283 282 282 281 280 279 279 279 277 276 276 277
273 272 272 273 274 274 274 275 275 276 277 277 276 277 278 279 279 280 280 281 282 282 282 283 283 282 281 282 282 281 280 279 280 280 279 277 276 277
273 274 273 272 272 273 273 274 275 275 275 275 275 275 276 277 277 277 278 279 280 281 282 282 282 282 281 281 281 280 280 280 280 280 279 278 277 278
274 274 274 274 272 272 272 273 274 275 275 275 274 274 275 276 276 277 277 277 277 278 279 280 280 280 281 281 281 280 279 280 280 279 279 279 279 279
Height
5813 5811 5810 5808 5807 5805 5804 5803 5803 5801 5800 5799 5797 5796 5794 5794 5793 5793 5793 5792 5792 5791 5790 5790 5789 5788 5787 5787 5786 5786 5785 5786 5786 5786 5786 5786 5786 5786
5808 5807 5805 5804 5802 5801 5800 5799 5797 5796 5795 5794 5792 5791 5789 5788 5788 5788 5787 5787 5786 5786 5785 5784 5784 5783 5782 5782 5781 5780 5780 5780 5780 5780 5780 5780 5780 5780
5804 5802 5801 5800 5798 5797 5795 5794 5792 5791 5790 5789 5787 5786 5784 5783 5783 5782 5782 5781 5781 5780 5780 5779 5778 5778 5777 5776 5775 5775 5775 5775 5774 5774 5774 5774 5774 5774
5799 5798 5796 5795 5793 5792 5791 5789 5788 5786 5785 5784 5782 5781 5780 5778 5778 5777 5777 5776 5775 5775 5775 5774 5773 5772 5771 5771 5770 5769 5769 5769 5769 5769 5769 5769 5769 5768
5794 5792 5791 5790 5788 5787 5786 5784 5782 5781 5780 5778 5777 5776 5775 5773 5773 5772 5772 5771 5770 5770 5769 5768 5767 5767 5766 5765 5764 5764 5763 5763 5763 5762 5762 5763 5762 5762
5788 5786 5785 5784 5783 5781 5780 5778 5777 5776 5774 5773 5772 5771 5769 5768 5767 5767 5766 5766 5765 5764 5763 5762 5762 5761 5760 5759 5759 5758 5757 5757 5756 5756 5756 5756 5756 5756
5782 5780 5779 5778 5776 5775 5774 5773 5771 5770 5768 5767 5766 5765 5764 5763 5762 5761 5761 5760 5759 5758 5757 5756 5755 5755 5754 5753 5752 5752 5751 5750 5750 5750 5749 5749 5749 5749
5775 5774 5772 5771 5770 5769 5768 5766 5765 5764 5762 5761 5760 5759 5757 5757 5756 5755 5754 5753 5753 5752 5751 5750 5749 5748 5748 5747 5746 5745 5744 5744 5743 5743 5742 5742 5742 5742
5768 5766 5765 5764 5763 5762 5761 5760 5758 5757 5756 5755 5754 5752 5751 5751 5750 5749 5747 5747 5746 5745 5744 5743 5742 5741 5741 5740 5739 5738 5737 5736 5736 5735 5735 5735 5734 5735
5760 5759 5758 5756 5755 5754 5753 5752 5751 5750 5749 5748 5747 5746 5745 5744 5743 5742 5740 5740 5739 5737 5736 5736 5735 5734 5733 5732 5732 5731 5730 5729 5728 5728 5727 5727 5727 5727
5752 5751 5749 5748 5748 5746 5745 5744 5743 5742 5741 5740 5739 5738 5737 5736 5736 5735 5734 5733 5732 5731 5729 5728 5728 5727 5726 5725 5724 5723 5722 5721 5721 5720 5720 5719 5719 5720
5744 5742 5741 5740 5739 5738 5737 5736 5735 5734 5733 5733 5732 5731 5730 5729 5728 5727 5726 5725 5724 5723 5722 5720 5719 5719 5718 5717 5716 5715 5714 5713 5713 5712 5712 5711 5711 5711
5735 5734 5733 5731 5730 5729 5728 5727 5726 5725 5725 5724 5724 5723 5722 5721 5720 5719 5718 5717 5716 5715 5714 5713 5712 5710 5710 5709 5708 5707 5706 5706 5705 5704 5703 5703 5703 5703
5726 5725 5724 5723 5721 5720 5719 5718 5717 5717 5716 5716 5715 5714 5714 5713 5711 5710 5709 5708 5707 5706 5705 5704 5703 5702 5701 5701 5700 5699 5698 5697 5696 5695 5695 5695 5694 5694
5715 5715 5714 5713 5712 5711 5710 5710 5709 5708 5708 5707 5707 5706 5705 5704 5703 5701 5700 5699 5698 5697 5696 5695 5694 5693 5692 5692 5691 5690 5689 5689 5688 5687 5687 5686 5686 5686
5705 5705 5704 5703 5703 5702 5702 5701 5700 5700 5699 5699 5698 5697 5696 5695 5694 5693 5691 5690 5689 5688 5687 5686 5685 5684 5683 5682 5682 5681 5680 5680 5679 5679 5678 5678 5677 5677
5695 5694 5694 5693 5693 5692 5692 5692 5691 5690 5690 5689 5688 5688 5687 5686 5685 5683 5682 5681 5680 5679 5678 5676 5675 5674 5674 5673 5672 5671 5671 5670 5670 5669 5669 5668 5668 5667
5684 5684 5684 5683 5683 5683 5682 5682 5681 5681 5680 5679 5679 5678 5677 5676 5675 5674 5673 5672 5671 5669 5668 5668 5666 5665 5665 5664 5663 5662 5661 5660 5660 5660 5659 5659 5659 5658
5673 5673 5673 5673 5673 5673 5672 5672 5671 5671 5670 5670 5669 5669 5668 5667 5666 5665 5664 5662 5661 5660 5659 5658 5657 5656 5655 5655 5654 5652 5652 5651 5650 5650 5650 5649 5649 5649
5663 5663 5663 5663 5662 5662 5662 5661 5661 5660 5660 5660 5659 5659 5658 5657 5656 5655 5654 5653 5652 5651 5650 5649 5648 5647 5646 5645 5644 5643 5642 5641 5641 5640 5640 5639 5639 5639
5652 5652 5652 5652 5652 5651 5651 5650 5650 5650 5649 5649 5649 5648 5648 5647 5646 5645 5644 5643 5642 5641 5640 5639 5638 5637 5636 5635 5635 5634 5633 5631 5631 5630 5630 5629 5629 5629
5640 5640 5640 5640 5640 5640 5640 5640 5639 5639 5638 5638 5638 5638 5637 5636 5636 5635 5634 5633 5632 5631 5630 5629 5628 5627 5626 5626 5625 5624 5623 5622 5621 5620 5619 5619 5618 5619
5629 5629 5629 5629 5629 5629 5629 5629 5628 5628 5627 5627 5627 5626 5626 5625 5625 5624 5623 5622 5622 5621 5620 5619 5618 5617 5616 5615 5615 5614 5613 5612 5611 5610 5610 5608 5608 5608